{"data":{"norad_id":62471,"epoch":"2026-09-21T01:57:10.211616Z","epoch_age_seconds":124266,"freshness":"FRESH","line1":"1 62471U 24254K   26264.08136819  .00128814  00000+0  98652-3 0  9999","line2":"2 62471  43.0018 125.0105 0003417 252.8950 107.1543 15.70964945100123","mean_motion":15.70964945,"eccentricity":0.0003417,"inclination_deg":43.0018,"raan_deg":125.0105,"arg_perigee_deg":252.895,"mean_anomaly_deg":107.1543,"bstar":0.00098652,"rev_number":10012,"period_min":91.66340754981,"perigee_km":353.83686728704,"apogee_km":358.43907080088,"semimajor_km":6734.274969044,"source":"CELESTRAK","updated_at":"2026-09-22T09:00:49.612875Z"}}